Weather History for Oxnard, CA

Change the Weather History Date:

Tuesday, April 9, 2013

  Actual Average Record
Temperature  
Mean Temperature 55 °F -  
Max Temperature 64 °F 67 °F 85 °F (1980)
Min Temperature 46 °F 48 °F 37 °F (1953)
Degree Days  
Heating Degree Days 10    
Growing Degree Days 5 (Base 50)    
Moisture  
Dew Point 42 °F    
Average Humidity 61    
Maximum Humidity 96    
Minimum Humidity 28    
Precipitation  
Precipitation 0.00 in - - ()
Sea Level Pressure  
Sea Level Pressure 29.92 in    
Wind  
Wind Speed 9 mph (NW)    
Max Wind Speed 17 mph    
Max Gust Speed -    
Visibility 10 miles    
Events      
Averages and records for this station are not official NWS values.
T = Trace of Precipitation, MM = Missing Value Source: NWS Daily Summary

Daily Weather History Graph

Daily Weather History Graph

Search for Another Location

Airport:

Trip Planner

Search our weather history database for the weather conditions in past years. The results will help you decide how hot, cold, wet, or windy it might be!

Date:

Astronomy

Apr. 09, 2013 Rise Set
Actual Time 6:32 AM PDT 7:24 PM PDT
Civil Twilight 6:07 AM PDT 7:49 PM PDT
Nautical Twilight 5:37 AM PDT 8:19 PM PDT
Astronomical Twilight 5:06 AM PDT 8:50 PM PDT
Moon 5:57 AM PDT (4/9) 7:04 PM PDT (4/9)
Length of Visible Light 13h 42m
Length of Day
12h 51m
Waning Crescent, 0% of the Moon is Illuminated
Apr 9
Waning Crescent
Apr 10
New
Apr 18
First Quarter
Apr 25
Full
May 2
Last Quarter

Hourly Weather History & Observations

Time (PDT) Temp. Windchill Dew Point Humidity Pressure Visibility Wind Dir Wind Speed Gust Speed Precip Events Conditions
12:51 AM 55.9 °F - 41.0 °F 57% 29.84 in 10.0 mi West 17.3 mph - N/A   Clear
1:51 AM 55.0 °F - 39.9 °F 57% 29.84 in 10.0 mi West 12.7 mph - N/A   Clear
2:51 AM 54.0 °F - 41.0 °F 62% 29.84 in 10.0 mi WNW 5.8 mph - N/A   Clear
3:51 AM 50.0 °F - 41.0 °F 71% 29.85 in 10.0 mi East 3.5 mph - N/A   Clear
4:51 AM 51.1 °F - 41.0 °F 68% 29.86 in 9.0 mi Calm Calm - N/A   Clear
5:51 AM 46.0 °F 43.9 °F 39.0 °F 76% 29.88 in 9.0 mi ENE 4.6 mph - N/A   Clear
6:51 AM 46.9 °F - 37.9 °F 71% 29.91 in 10.0 mi Calm Calm - N/A   Clear
7:51 AM 54.0 °F - 37.9 °F 55% 29.93 in 10.0 mi NE 6.9 mph - N/A   Clear
8:51 AM 60.1 °F - 36.0 °F 41% 29.95 in 10.0 mi North 5.8 mph - N/A   Clear
9:51 AM 64.9 °F - 30.9 °F 28% 29.95 in 10.0 mi Calm Calm - N/A   Clear
10:51 AM 63.0 °F - 37.9 °F 40% 29.96 in 10.0 mi West 6.9 mph - N/A   Clear
11:51 AM 64.9 °F - 43.0 °F 45% 29.95 in 10.0 mi West 13.8 mph - N/A   Clear
12:51 PM 64.0 °F - 46.0 °F 52% 29.94 in 10.0 mi West 16.1 mph - N/A   Clear
1:51 PM 46.0 °F 39.9 °F 45.0 °F 96% 29.93 in 10.0 mi West 13.8 mph - N/A   Clear
2:51 PM 64.0 °F - 44.1 °F 48% 29.92 in 10.0 mi WNW 13.8 mph - N/A   Clear
3:51 PM 63.0 °F - 45.0 °F 52% 29.91 in 10.0 mi West 15.0 mph - N/A   Clear
4:51 PM 62.1 °F - 46.9 °F 58% 29.90 in 9.0 mi WNW 11.5 mph - N/A   Clear
5:51 PM 62.1 °F - 46.0 °F 56% 29.90 in 8.0 mi West 12.7 mph - N/A   Clear
6:51 PM 57.9 °F - 48.0 °F 70% 29.91 in 7.0 mi Variable 4.6 mph - N/A   Clear
7:51 PM 57.0 °F - 48.0 °F 72% 29.93 in 8.0 mi West 5.8 mph - N/A   Clear
8:51 PM 55.0 °F - 46.9 °F 74% 29.95 in 8.0 mi NE 3.5 mph - N/A   Clear
9:51 PM 54.0 °F - 46.0 °F 75% 29.96 in 9.0 mi ENE 8.1 mph - N/A   Clear
10:51 PM 55.9 °F - 45.0 °F 67% 29.98 in 10.0 mi East 4.6 mph - N/A   Clear
11:51 PM 55.9 °F - 43.0 °F 62% 29.99 in 10.0 mi NE 9.2 mph - N/A   Clear